TimeMST,TemperatureF,Dew PointF,Humidity,Sea Level PressureIn,VisibilityMPH,Wind Direction,Wind SpeedMPH,Gust SpeedMPH,PrecipitationIn,Events,Conditions,WindDirDegrees,DateUTC
12:53 AM,19.0,15.1,85,30.39,10.0,SW,4.6,-,N/A,,Clear,230,2013-01-21 07:53:00
1:53 AM,19.0,15.1,85,30.40,10.0,SW,6.9,-,N/A,,Clear,220,2013-01-21 08:53:00
2:53 AM,18.0,15.1,88,30.37,10.0,WSW,5.8,-,N/A,,Clear,250,2013-01-21 09:53:00
3:53 AM,18.0,14.0,84,30.37,10.0,West,3.5,-,N/A,,Clear,280,2013-01-21 10:53:00
4:53 AM,15.1,12.9,91,30.34,10.0,SW,6.9,-,N/A,,Clear,220,2013-01-21 11:53:00
5:53 AM,14.0,10.9,88,30.36,10.0,North,4.6,-,N/A,,Clear,10,2013-01-21 12:53:00
6:53 AM,12.9,10.0,88,30.36,10.0,North,4.6,-,N/A,,Clear,10,2013-01-21 13:53:00
7:53 AM,17.1,12.9,84,30.32,10.0,Calm,Calm,-,N/A,,Clear,0,2013-01-21 14:53:00
8:53 AM,21.0,16.0,81,30.34,10.0,NNE,4.6,-,N/A,,Clear,30,2013-01-21 15:53:00
9:53 AM,25.0,18.0,75,30.35,10.0,Variable,5.8,-,N/A,,Clear,0,2013-01-21 16:53:00
10:53 AM,28.0,18.0,66,30.33,10.0,NE,5.8,-,N/A,,Clear,40,2013-01-21 17:53:00
11:53 AM,30.9,19.0,61,30.30,10.0,North,3.5,-,N/A,,Clear,360,2013-01-21 18:53:00
12:53 PM,34.0,19.0,54,30.26,10.0,Calm,Calm,-,N/A,,Clear,0,2013-01-21 19:53:00
1:53 PM,36.0,19.9,52,30.23,10.0,Calm,Calm,-,N/A,,Clear,0,2013-01-21 20:53:00
2:53 PM,37.0,19.0,48,30.22,10.0,NE,6.9,-,N/A,,Clear,50,2013-01-21 21:53:00
3:53 PM,35.1,21.0,57,30.22,10.0,ESE,8.1,-,N/A,,Clear,110,2013-01-21 22:53:00
4:53 PM,28.9,21.0,72,30.22,10.0,ESE,8.1,-,N/A,,Clear,120,2013-01-21 23:53:00
5:53 PM,26.1,19.9,78,30.25,10.0,SE,6.9,-,N/A,,Clear,140,2013-01-22 00:53:00
6:53 PM,25.0,21.0,85,30.26,10.0,SE,6.9,-,N/A,,Partly Cloudy,140,2013-01-22 01:53:00
7:53 PM,24.1,21.0,88,30.23,10.0,SE,9.2,-,N/A,,Partly Cloudy,130,2013-01-22 02:53:00
8:12 PM,23.0,21.2,93,30.11,7.0,ESE,10.4,-,N/A,,Scattered Clouds,120,2013-01-22 03:12:00
8:17 PM,23.0,21.2,93,30.11,6.0,ESE,10.4,-,N/A,,Mostly Cloudy,120,2013-01-22 03:17:00
8:53 PM,23.0,21.9,96,30.24,3.0,SSE,8.1,-,N/A,,Overcast,150,2013-01-22 03:53:00
9:06 PM,23.0,21.2,93,30.11,2.5,SSE,12.7,-,N/A,,Overcast,150,2013-01-22 04:06:00
9:13 PM,23.0,21.2,93,30.12,4.0,SSE,10.4,-,N/A,,Overcast,150,2013-01-22 04:13:00
9:27 PM,23.0,21.2,93,30.12,1.8,SSE,12.7,-,N/A,,Overcast,150,2013-01-22 04:27:00
9:53 PM,21.9,21.0,96,30.23,1.0,South,10.4,-,N/A,,Mist,170,2013-01-22 04:53:00
10:00 PM,21.2,21.2,100,30.11,0.5,SSE,11.5,-,N/A,Fog,Light Freezing Fog,160,2013-01-22 05:00:00
10:38 PM,21.2,21.2,100,30.10,1.2,SSE,9.2,-,N/A,,Overcast,160,2013-01-22 05:38:00
10:53 PM,21.9,21.9,100,30.23,1.0,South,6.9,-,N/A,,Mist,170,2013-01-22 05:53:00
11:53 PM,21.9,19.9,92,30.21,0.8,SSE,8.1,-,N/A,,Mist,160,2013-01-22 06:53:00